This demonstration page uses our WeatherBlox Daily Observations layout. Learn more.

Hourly Observations for September 4, 2018

Temp ( °F °C ) Dew Point ( °F °C ) Humidity (%) Winds ( mph kmh ) Pressure ( in mb ) Visibility ( mi km ) Precip ( " mm )
12:15 am 00:15 Cloudy 68 19.9 68 19.9 100 100 S 7 11 29.94 1014 10 16.09344 0 0
12:35 am 00:35 Cloudy 68 19.8 68 19.8 100 100 SSE 7 11 29.94 1014 10 16.09344 0 0
12:55 am 00:55 Cloudy 68 19.8 68 19.8 100 100 SSE 8 13 29.94 1014 10 16.09344 0 0
1:15 am 01:15 Mostly Cloudy 67 19.6 67 19.6 100 100 SE 7 11 29.97 1015 10 16.09344 0 0
1:35 am 01:35 Mostly Cloudy 67 19.5 67 19.5 100 100 SSE 6 9 29.97 1015 10 16.09344 0 0
1:55 am 01:55 Mostly Cloudy 67 19.3 67 19.3 100 100 SSE 5 7 29.97 1015 10 16.09344 0 0
2:15 am 02:15 Cloudy 67 19.3 67 19.3 100 100 SSE 5 7 29.97 1015 10 16.09344 0 0
2:35 am 02:35 Cloudy with Rain 67 19.3 67 19.3 100 100 Calm 29.97 1015 10 16.09344 0 0
2:55 am 02:55 Cloudy with Light Rain 67 19.3 67 19.3 100 100 SE 6 9 29.97 1015 7 11.265408 0.06 1.524
3:15 am 03:15 Cloudy with Light Rain 67 19.5 67 19.5 100 100 SSE 6 9 29.97 1015 10 16.09344 0.01 0.254
3:35 am 03:35 Cloudy with Light Drizzle 67 19.6 67 19.6 100 100 SSE 8 13 29.91 1013 10 16.09344 0.01 0.254
3:55 am 03:55 Cloudy with Light Rain 67 19.7 67 19.7 100 100 SSE 5 7 29.91 1013 10 16.09344 0.01 0.254
4:15 am 04:15 Cloudy with Light Rain 67 19.6 67 19.6 100 100 S 5 7 29.91 1013 10 16.09344 0 0
4:35 am 04:35 Cloudy 67 19.6 67 19.6 100 100 S 6 9 29.91 1013 10 16.09344 0 0
4:55 am 04:55 Cloudy 67 19.6 67 19.6 100 100 SSE 3 6 29.91 1013 10 16.09344 0 0
5:15 am 05:15 Cloudy 67 19.7 67 19.7 100 100 SSE 6 9 29.91 1013 7 11.265408 0 0
5:35 am 05:35 Cloudy 68 19.8 68 19.8 100 100 SSE 5 7 29.91 1013 7 11.265408 0 0
5:55 am 05:55 Cloudy 68 19.8 68 19.8 100 100 SSE 5 7 29.91 1013 7 11.265408 0 0
6:15 am 06:15 Cloudy 68 20 68 20 100 100 SE 5 7 29.91 1013 10 16.09344 0 0
6:35 am 06:35 Cloudy 68 20 68 20 100 100 SE 5 7 29.91 1013 10 16.09344 0 0
6:55 am 06:55 Cloudy 68 20 68 20 100 100 SE 5 7 29.91 1013 10 16.09344 0 0
7:15 am 07:15 Cloudy 68 20 68 20 100 100 Calm 29.91 1013 7 11.265408 0 0
7:35 am 07:35 Cloudy 68 20 68 20 100 100 ESE 3 6 29.91 1013 7 11.265408 0 0
7:55 am 07:55 Cloudy with Mist and Fog 68 20 68 20 100 100 Calm 29.91 1013 4 6.437376 0 0
8:15 am 08:15 Cloudy with Mist and Fog 68 20.1 68 20.1 100 100 Calm 29.91 1013 4 6.437376 0 0
8:35 am 08:35 Cloudy with Mist and Fog 68 20.1 68 20.1 100 100 Calm 29.91 1013 5 8.04672 0 0
8:55 am 08:55 Cloudy 68 20.2 68 20.2 100 100 SSE 3 6 29.91 1013 7 11.265408 0 0
9:15 am 09:15 Cloudy 69 20.5 69 20.5 100 100 S 3 6 29.91 1013 10 16.09344 0 0
9:35 am 09:35 Cloudy 70 20.9 69 20.7 99 99 SSW 3 6 29.91 1013 10 16.09344 0 0
9:55 am 09:55 Cloudy 71 21.5 69 20.7 95 95 S 3 6 29.91 1013 10 16.09344 0 0
10:15 am 10:15 Cloudy 72 22 68 20.1 89 89 SW 3 6 29.91 1013 10 16.09344 0 0
10:35 am 10:35 Cloudy 72 22 68 19.9 88 88 Calm 29.91 1013 10 16.09344 0 0
10:55 am 10:55 Cloudy 72 22.2 68 20.1 88 88 S 5 7 29.91 1013 10 16.09344 0 0
11:15 am 11:15 Cloudy 72 22.3 68 20 87 87 SSW 5 7 29.91 1013 10 16.09344 0 0
11:35 am 11:35 Cloudy 72 22.4 69 20.6 90 90 Calm 29.94 1014 10 16.09344 0 0
11:55 am 11:55 Cloudy 74 23.2 68 19.9 82 82 Calm 29.94 1014 10 16.09344 0 0
12:15 pm 12:15 Cloudy 74 23.4 69 20.3 83 83 S 5 7 29.91 1013 10 16.09344 0 0
12:35 pm 12:35 Cloudy 76 24.2 69 20.5 80 80 Calm 29.88 1012 10 16.09344 0 0
12:55 pm 12:55 Cloudy 75 23.9 70 21 84 84 SW 3 6 29.88 1012 10 16.09344 0 0
1:15 pm 13:15 Cloudy 76 24.3 69 20.6 80 80 Calm 29.88 1012 10 16.09344 0 0
1:35 pm 13:35 Partly Cloudy 76 24.7 70 20.9 79 79 SSW 5 7 29.88 1012 10 16.09344 0 0
1:55 pm 13:55 Partly Cloudy 76 24.6 69 20.5 78 78 SW 3 6 29.88 1012 10 16.09344 0 0
2:15 pm 14:15 Partly Cloudy 77 25 69 20.3 75 75 S 3 6 29.88 1012 10 16.09344 0 0
2:35 pm 14:35 Mostly Cloudy 78 25.8 68 20 70 70 S 5 7 29.88 1012 10 16.09344 0 0
2:55 pm 14:55 Partly Cloudy 79 25.9 68 20.2 71 71 SW 5 7 29.85 1011 10 16.09344 0 0
3:15 pm 15:15 Partly Cloudy 78 25.6 68 20.1 72 72 S 7 11 29.85 1011 10 16.09344 0 0
3:35 pm 15:35 Mostly Cloudy 79 26.3 67 19.7 67 67 S 5 7 29.85 1011 10 16.09344 0 0
3:55 pm 15:55 Partly Cloudy 79 26.3 68 20.1 69 69 S 8 13 29.85 1011 10 16.09344 0 0
4:15 pm 16:15 Partly Cloudy 80 26.7 68 20 67 67 SSW 6 9 29.8 1009 10 16.09344 0 0
4:35 pm 16:35 Partly Cloudy 80 26.7 67 19.3 64 64 SSW 5 7 29.8 1009 10 16.09344 0 0
4:55 pm 16:55 Partly Cloudy 80 26.8 68 19.9 66 66 SSE 9 15 29.8 1009 10 16.09344 0 0
5:15 pm 17:15 Sunny 80 26.6 67 19.6 66 66 S 9 15 29.8 1009 10 16.09344 0 0
5:35 pm 17:35 Sunny 79 25.9 66 19.1 66 66 SSE 8 13 29.83 1010 10 16.09344 0 0
5:55 pm 17:55 Partly Cloudy 78 25.7 68 20 71 71 SE 6 9 29.83 1010 10 16.09344 0 0
6:15 pm 18:15 Partly Cloudy 77 25.2 68 20 73 73 S 5 7 29.85 1011 10 16.09344 0 0
6:35 pm 18:35 Partly Cloudy 77 25.1 69 20.5 76 76 SSE 5 7 29.85 1011 10 16.09344 0 0
6:55 pm 18:55 Mostly Cloudy with Thunderstorms 76 24.6 70 20.9 80 80 ESE 5 7 29.85 1011 10 16.09344 0 0
7:15 pm 19:15 Cloudy with Thunderstorms 75 23.7 69 20.3 81 81 WSW 20 31 29.88 1012 10 16.09344 0 0
7:35 pm 19:35 Cloudy 66 19 65 18.1 95 95 NNW 5 7 29.94 1014 0.75 1.207008 0.99 25.146
7:55 pm 19:55 Cloudy with Light Rain 67 19.2 64 17.7 91 91 NE 8 13 29.88 1012 7 11.265408 1.09 27.686
8:15 pm 20:15 Cloudy with Nearby Thunderstorms 67 19.2 64 18 93 93 NNE 6 9 29.88 1012 10 16.09344 0 0
8:35 pm 20:35 Cloudy with Light Rain 66 18.9 65 18.5 98 98 N 9 15 29.91 1013 10 16.09344 0 0
8:55 pm 20:55 Cloudy with Heavy Rain 67 19.5 67 19.3 99 99 NW 13 20 29.91 1013 5 8.04672 0.15 3.81
9:15 pm 21:15 Cloudy 66 18.7 66 18.7 100 100 N 16 26 29.97 1015 2.5 4.02336 0.55 13.97
9:35 pm 21:35 Cloudy 65 18.3 65 18.3 100 100 NNE 15 24 29.97 1015 4 6.437376 0.8 20.32
9:55 pm 21:55 Cloudy with Heavy Thunderstorms 65 18.3 65 18.3 100 100 NE 12 19 30 1016 4 6.437376 0.96 24.384
10:15 pm 22:15 Cloudy 64 18 64 18 100 100 N 8 13 30.03 1017 4 6.437376 0.17 4.318
10:35 pm 22:35 Cloudy with Rain 64 17.7 64 17.7 100 100 NNE 6 9 30 1016 5 8.04672 0.24 6.096
10:55 pm 22:55 Cloudy with Rain 64 17.9 64 17.9 100 100 NNE 3 6 30.03 1017 7 11.265408 0.27 6.858
11:15 pm 23:15 Cloudy with Light Rain 64 18 64 18 100 100 Calm 30.03 1017 7 11.265408 0.02 0.508
11:35 pm 23:35 Cloudy with Light Drizzle 64 18 64 18 100 100 Calm 30.03 1017 10 16.09344 0.03 0.762
11:55 pm 23:55 Cloudy 65 18.1 65 18.1 100 100 NE 5 7 30 1016 10 16.09344 0.03 0.762

Powered by AerisWeather